Home   Weather   Taunton   Past weeks

Flag for United Kingdom Past Weather in Taunton, England, United Kingdom — Yesterday and Last 2 Weeks

Now
69 °F

Mild.


Feels Like: 69 °F
Forecast: 54 / 68 °F
Wind: 12 mph from Southwest

Location: Dunkeswell Aerodrome

Current Time: Aug 30, 2016 at 8:15:37 PM

Latest Report: Aug 30, 2016 at 2:00 PM


Visibility: 22 mi

Pressure: 30.25 "Hg

Humidity: 60%

Dew Point: 55 °F

Location of TauntonLocation

Past Weather in Taunton — Graph

°F

Taunton Temperature Yesterday

Maximum temperature yesterday: 72 °F (at 4:00 PM)
Minimum temperature yesterday: 53 °F (at 4:00 AM)
Average temperature yesterday: 61 °F

High & Low Weather Summary for the Past Weeks

 TemperatureHumidityPressure
High74 °F (Aug 23, 2:00 PM)100% (Aug 16, 7:00 AM)30.31 "Hg (Aug 16, 7:00 AM)
Low48 °F (Aug 30, 5:00 AM)48% (Aug 26, 5:00 PM)29.60 "Hg (Aug 19, 5:00 PM)
Average61 °F86%30.00 "Hg
* Reported Aug 15 2:00 PM — Aug 30 2:00 PM, Taunton, Weather by CustomWeather, © 2016

Note: Actual official high and low records may vary slightly from our data, if they occured in-between our weather recording intervals... More about our weather records

Advertising

Taunton Weather History for the Previous 24 Hours

Scroll right to see more
 ConditionsComfort  
Time TempWeatherWind HumidityBarometerVisibility
2:00 PM
Tue, Aug 30
69 °FMild.12 mph60%30.25 "Hg22 mi
1:00 PM69 °FMild.10 mph65%30.26 "Hg22 mi
12:00 PM68 °FMild.10 mph74%30.26 "Hg19 mi
11:00 AM67 °FMild.6 mph83%30.27 "Hg11 mi
10:00 AM64 °FMild.6 mph83%30.28 "Hg14 mi
9:00 AM61 °FCool.3 mph92%30.28 "Hg16 mi
7:00 AM51 °FCool.1 mph99%30.29 "Hg6 mi
6:00 AM49 °FCool.2 mph100%30.29 "Hg6 mi
5:00 AM48 °FDuststorm.1 mph98%30.29 "Hg0 mi
4:00 AM53 °FDuststorm.2 mph99%30.30 "Hg0 mi
3:00 AM52 °FCool.3 mph98%30.30 "Hg4 mi
2:00 AM53 °FCool.2 mph97%30.30 "Hg5 mi
1:00 AM54 °FFog.2 mph96%30.30 "Hg6 mi
12:00 AM56 °FFog.5 mph96%30.31 "Hg6 mi
11:00 PM
Mon, Aug 29
57 °FCool.6 mph95%30.30 "Hg7 mi
10:00 PM58 °FCool.3 mph91%30.29 "Hg11 mi
9:00 PM60 °FCool.1 mph80%30.27 "Hg22 mi
8:00 PM63 °FMild.5 mph73%30.25 "Hg31 mi
Weather by CustomWeather, © 2016

See weather overviewHow to use our weather pages